Location: Cella
(44.7333°N, 10.5667°E)
Time: 09:44:20
(UTC+00:00)

Cosmos 1503 Rocket - Pass Details

Date: 03 March 2021
Orbit: 753 x 790 km, 74.0° (Epoch: 19 April)

Event Time Altitude Azimuth Distance (km) Brightness Sun altitude
Rises 18:29:43 0° 338° (NNW) 3,228 7.6 -15.3°
Reaches altitude 10° 18:32:06 10° 337° (NNW) 2,294 6.9 -15.7°
Maximum altitude 18:37:18 81° 251° (WSW) 769 4.0 -16.6°
Drops below altitude 10° 18:42:26 10° 165° (SSE) 2,270 6.2 -17.5°
Enters shadow 18:44:30 - 164° (SSE) 3,077 6.9 -17.9°
